User: anonymous   Login
Location: Unspecified
(0.0000°N, 0.0000°E)
Time: 08:49:46
(UTC+00:00)
Language:

STARLINK-37221 - Orbit

View from above orbital plane
View from above orbital plane
View from above satellite
View from above satellite

Ground track
Ground track

The orbit is defined by the following mean orbital elements,

1 68668U          26145.38713311 +.00000000 +00000-0 +57111-3 0 00000
2 68668  97.2862  16.9833 0000972  95.1385 264.9968 15.33444249    02
Epoch (UTC): 25 May 2026 09:17:28
Eccentricity: 0.0000972
inclination: 97.2862°
perigee height: 465 km
apogee height: 466 km
right ascension of ascending node: 16.9833°
argument of perigee: 95.1385°
revolutions per day: 15.33444249
mean anomaly at epoch: 264.9968°

The dashed part of the orbit path shows where the satellite is in the earth's shadow,  

DLR